Regional Weather Roundup
Issued by NWS Cleveland, OH

Home | Current Version | Previous Version | Graphics & Text | Print | Product List | Glossary On
Versions: 1 2 3 4 5 6 7 8 9 10 11 12 13 14 15 16 17 18 19 20 21 22 23 24 25 26 27 28 29 30 31 32 33 34 35 36 37 38 39 40 41 42 43 44 45 46 47 48 49 50
000
ASUS41 KCLE 271402
RWRCLE
OHIO REGIONAL WEATHER ROUNDUP
NATIONAL WEATHER SERVICE CLEVELAND, OH
1000 AM EDT MON APR 27 2015

NOTE: "FAIR" INDICATES FEW OR NO CLOUDS BELOW 12,000 FEET WITH NO
SIGNIFICANT WEATHER AND/OR OBSTRUCTIONS TO VISIBILITY.

OHZ001>008-015>018-024>027-034-035-043-044-271500-
   NORTHWEST OHIO

CITY           SKY/WX    TMP DP  RH WIND       PRES   REMARKS
DEFIANCE       CLOUDY    48  35  60 N8        30.01R
FINDLAY        CLOUDY    49  35  58 N12       29.98R
TOLEDO EXPRESS CLOUDY    47  35  63 N10       29.98R
TOLEDO EXEC    CLOUDY    46  34  62 N12       29.99R
LIMA           CLOUDY    47  34  60 NW8       29.99R
$$

OHZ009>014-019>023-028>033-038-089-271500-
   NORTHEAST OHIO

CITY           SKY/WX    TMP DP  RH WIND       PRES   REMARKS
CLE-HOPKINS    CLOUDY    39  35  86 N14       29.97R
CLE-LAKEFRONT  CLOUDY    40  35  83 NW15      29.94R
CUY CO. ARPT   CLOUDY    39  37  93 NW12      29.94R
LORAIN-ELYRIA  LGT RAIN  40  38  93 NE9       29.95R
ASHTABULA      LGT RAIN  37  35  92 NW12      29.89R
AKRON-CANTON   LGT RAIN  43  36  76 N14       29.90R
WOOSTER        LGT RAIN  42  37  82 N13       29.93R
MANSFIELD      CLOUDY    43  35  73 NW14      29.94R
YOUNGSTOWN     LGT RAIN  40  37  89 NW13      29.87R FOG
$$

OHZ042-051>053-060>062-070>072-077>081-271500-
  SOUTHWEST OHIO

CITY           SKY/WX    TMP DP  RH WIND       PRES   REMARKS
CINC-COVINGTON SUNNY     51  38  60 CALM      29.98S
CINC-LUNKEN    SUNNY     50  40  68 CALM      29.99S
HAMILTON       SUNNY     51  39  63 CALM      30.00R
DAYTON         PTSUNNY   51  34  52 VRB3      29.99R
WRIGHT-PAT AFB NOT AVBL
DAYTON GENERAL SUNNY     49  35  58 SW7       29.97R
WILMINGTON     SUNNY     51  33  50 SW6       29.97R
$$

OHZ036-037-039>041-045>050-054>059-063>069-073>076-082>088-271500-
  CENTRAL AND SOUTHEAST OHIO

CITY           SKY/WX    TMP DP  RH WIND       PRES   REMARKS
COLUMBUS       MOSUNNY   49  33  54 N9        29.97R
OSU AIRPORT    CLOUDY    48  32  53 N7        29.97R
BOLTON FIELD   CLOUDY    48  36  61 NW6       29.98R
RICKENBACK AFB NOT AVBL
NEWARK         PTSUNNY   49  32  52 N12G17    29.95R
MARION         CLOUDY    46  34  62 NW12      29.97R
LANCASTER      MOSUNNY   48  33  56 W6        29.97R
ZANESVILLE     SUNNY     48  33  56 N8        29.93R
NEW PHILLY     CLOUDY    48  35  60 NW12      29.92R
$$


USA.gov is the U.S. government's official web portal to all federal, state and local government web resources and services.